Time,TemperatureF,DewpointF,PressureIn,WindDirection,WindDirectionDegrees,WindSpeedMPH,WindSpeedGustMPH,Humidity,HourlyPrecipIn,Conditions,Clouds,dailyrainin,SoftwareType,DateUTC
2013-06-12 00:00:00,68.3,53.4,29.82,West,277,0.0,3.0,59,0.00,CLR,OVC,0.33,WeatherDisplay:10.37,2013-06-12 04:00:00,
2013-06-12 00:05:00,68.2,51.4,29.82,WNW,285,1.0,3.0,55,0.00,CLR,OVC,0.33,WeatherDisplay:10.37,2013-06-12 04:05:00,
2013-06-12 00:10:00,68.0,53.1,29.81,WNW,297,0.0,2.0,59,0.00,CLR,OVC,0.33,WeatherDisplay:10.37,2013-06-12 04:10:00,
2013-06-12 00:15:00,68.3,52.5,29.81,WNW,301,3.0,6.0,57,0.00,CLR,OVC,0.33,WeatherDisplay:10.37,2013-06-12 04:15:00,
2013-06-12 00:20:00,69.0,54.1,29.81,WNW,285,0.0,7.0,59,0.00,CLR,OVC,0.33,WeatherDisplay:10.37,2013-06-12 04:20:00,
2013-06-12 00:25:00,69.4,54.0,29.81,West,269,0.0,0.0,58,0.00,CLR,OVC,0.33,WeatherDisplay:10.37,2013-06-12 04:25:00,
2013-06-12 00:30:00,69.6,53.2,29.81,West,274,3.0,7.0,56,0.00,CLR,OVC,0.33,WeatherDisplay:10.37,2013-06-12 04:30:00,
2013-06-12 00:35:00,70.1,53.7,29.81,West,268,0.0,3.0,56,0.00,CLR,OVC,0.33,WeatherDisplay:10.37,2013-06-12 04:35:00,
2013-06-12 00:40:00,70.3,52.9,29.81,West,277,0.0,6.0,54,0.00,CLR,OVC,0.33,WeatherDisplay:10.37,2013-06-12 04:40:00,
2013-06-12 00:45:00,70.7,54.2,29.81,WNW,290,3.0,7.0,56,0.00,CLR,OVC,0.33,WeatherDisplay:10.37,2013-06-12 04:45:00,
2013-06-12 00:50:00,69.8,54.8,29.81,West,276,2.0,7.0,59,0.00,CLR,OVC,0.33,WeatherDisplay:10.37,2013-06-12 04:50:00,
2013-06-12 00:55:00,70.3,55.3,29.81,West,275,1.0,5.0,59,0.00,CLR,OVC,0.33,WeatherDisplay:10.37,2013-06-12 04:55:00,
2013-06-12 01:00:00,70.7,54.2,29.81,WNW,295,3.0,7.0,56,0.00,CLR,OVC,0.33,WeatherDisplay:10.37,2013-06-12 05:00:00,
2013-06-12 01:05:00,72.0,54.4,29.80,West,279,2.0,5.0,54,0.00,CLR,OVC,0.33,WeatherDisplay:10.37,2013-06-12 05:05:00,
2013-06-12 01:10:00,71.1,55.6,29.80,WSW,249,2.0,4.0,58,0.00,CLR,OVC,0.33,WeatherDisplay:10.37,2013-06-12 05:10:00,
2013-06-12 01:15:00,70.4,53.0,29.80,West,266,2.0,7.0,54,0.00,CLR,OVC,0.33,WeatherDisplay:10.37,2013-06-12 05:15:00,
2013-06-12 01:20:00,71.6,54.1,29.80,West,281,2.0,10.0,54,0.00,CLR,OVC,0.33,WeatherDisplay:10.37,2013-06-12 05:20:00,
2013-06-12 01:25:00,72.5,54.4,29.80,WNW,298,2.0,3.0,53,0.00,CLR,OVC,0.33,WeatherDisplay:10.37,2013-06-12 05:25:00,
2013-06-12 01:30:00,71.8,54.3,29.80,WNW,295,0.0,5.0,54,0.00,CLR,OVC,0.33,WeatherDisplay:10.37,2013-06-12 05:30:00,
2013-06-12 01:35:00,72.4,56.3,29.80,West,268,1.0,4.0,57,0.00,CLR,OVC,0.33,WeatherDisplay:10.37,2013-06-12 05:35:00,
2013-06-12 01:40:00,72.5,54.4,29.80,WNW,288,3.0,11.0,53,0.00,CLR,OVC,0.33,WeatherDisplay:10.37,2013-06-12 05:40:00,
2013-06-12 01:45:00,71.7,54.2,29.80,WNW,293,3.0,8.0,54,0.00,CLR,OVC,0.33,WeatherDisplay:10.37,2013-06-12 05:45:00,
2013-06-12 01:50:00,71.9,54.9,29.79,West,270,2.0,9.0,55,0.00,CLR,OVC,0.33,WeatherDisplay:10.37,2013-06-12 05:50:00,
2013-06-12 01:55:00,71.9,55.3,29.80,WSW,254,1.0,8.0,56,0.00,CLR,OVC,0.33,WeatherDisplay:10.37,2013-06-12 05:55:00,
2013-06-12 02:00:00,72.1,55.0,29.79,West,261,1.0,6.0,55,0.00,CLR,OVC,0.33,WeatherDisplay:10.37,2013-06-12 06:00:00,
2013-06-12 02:05:00,72.1,55.5,29.79,West,265,3.0,5.0,56,0.00,CLR,OVC,0.33,WeatherDisplay:10.37,2013-06-12 06:05:00,
2013-06-12 02:10:00,71.8,55.7,29.79,West,279,3.0,8.0,57,0.00,CLR,OVC,0.33,WeatherDisplay:10.37,2013-06-12 06:10:00,
2013-06-12 02:15:00,72.5,54.4,29.79,WNW,287,3.0,9.0,53,0.00,CLR,OVC,0.33,WeatherDisplay:10.37,2013-06-12 06:15:00,
2013-06-12 02:20:00,73.6,55.9,29.78,WNW,289,5.0,8.0,54,0.00,CLR,OVC,0.33,WeatherDisplay:10.37,2013-06-12 06:20:00,
2013-06-12 02:25:00,73.7,55.5,29.78,WNW,291,2.0,13.0,53,0.00,CLR,OVC,0.33,WeatherDisplay:10.37,2013-06-12 06:25:00,
2013-06-12 02:30:00,74.4,56.2,29.78,West,279,2.0,7.0,53,0.00,CLR,OVC,0.33,WeatherDisplay:10.37,2013-06-12 06:30:00,
2013-06-12 02:35:00,74.1,56.4,29.78,West,263,1.0,9.0,54,0.00,CLR,OVC,0.33,WeatherDisplay:10.37,2013-06-12 06:35:00,
2013-06-12 02:40:00,74.5,56.2,29.77,West,266,1.0,8.0,53,0.00,CLR,OVC,0.33,WeatherDisplay:10.37,2013-06-12 06:40:00,
2013-06-12 02:45:00,74.1,57.4,29.77,West,271,2.0,9.0,56,0.00,CLR,OVC,0.33,WeatherDisplay:10.37,2013-06-12 06:45:00,
2013-06-12 02:50:00,73.6,55.9,29.77,West,274,0.0,6.0,54,0.00,CLR,OVC,0.33,WeatherDisplay:10.37,2013-06-12 06:50:00,
2013-06-12 02:55:00,73.6,56.9,29.77,West,272,5.0,10.0,56,0.00,CLR,OVC,0.33,WeatherDisplay:10.37,2013-06-12 06:55:00,
2013-06-12 03:00:00,72.8,56.7,29.76,WNW,282,0.0,9.0,57,0.00,CLR,OVC,0.33,WeatherDisplay:10.37,2013-06-12 07:00:00,
2013-06-12 03:05:00,72.3,56.2,29.76,WNW,291,5.0,10.0,57,0.00,CLR,OVC,0.33,WeatherDisplay:10.37,2013-06-12 07:05:00,
2013-06-12 03:10:00,73.1,57.9,29.76,WNW,288,5.0,8.0,59,0.00,CLR,OVC,0.33,WeatherDisplay:10.37,2013-06-12 07:10:00,
2013-06-12 03:15:00,74.7,58.9,29.75,WNW,291,2.0,7.0,58,0.00,CLR,OVC,0.33,WeatherDisplay:10.37,2013-06-12 07:15:00,
2013-06-12 03:20:00,75.8,58.5,29.75,WNW,282,2.0,6.0,55,0.00,CLR,OVC,0.33,WeatherDisplay:10.37,2013-06-12 07:20:00,
2013-06-12 03:25:00,75.3,58.0,29.75,West,280,5.0,12.0,55,0.00,CLR,OVC,0.33,WeatherDisplay:10.37,2013-06-12 07:25:00,
2013-06-12 03:30:00,75.4,57.6,29.75,West,273,5.0,12.0,54,0.00,CLR,OVC,0.33,WeatherDisplay:10.37,2013-06-12 07:30:00,
2013-06-12 03:35:00,75.3,58.5,29.75,West,268,2.0,9.0,56,0.00,CLR,OVC,0.33,WeatherDisplay:10.37,2013-06-12 07:35:00,
2013-06-12 03:40:00,74.7,59.4,29.76,West,265,0.0,5.0,59,0.00,CLR,OVC,0.33,WeatherDisplay:10.37,2013-06-12 07:40:00,
2013-06-12 03:45:00,72.3,56.7,29.75,South,174,1.0,4.0,58,0.00,CLR,OVC,0.33,WeatherDisplay:10.37,2013-06-12 07:45:00,
2013-06-12 03:50:00,69.5,56.8,29.75,East,100,2.0,12.0,64,0.00,CLR,OVC,0.33,WeatherDisplay:10.37,2013-06-12 07:50:00,
2013-06-12 03:55:00,65.5,58.5,29.76,ENE,75,0.0,6.0,78,0.00,CLR,OVC,0.33,WeatherDisplay:10.37,2013-06-12 07:55:00,
2013-06-12 04:00:00,62.4,57.5,29.79,ENE,57,1.0,4.0,84,0.01,RA,OVC,0.34,WeatherDisplay:10.37,2013-06-12 08:00:00,
2013-06-12 04:05:00,60.7,56.5,29.77,NNE,30,0.0,5.0,86,0.02,RA,OVC,0.35,WeatherDisplay:10.37,2013-06-12 08:05:00,
2013-06-12 04:10:00,59.9,57.0,29.77,NW,319,0.0,1.0,90,0.02,RA,OVC,0.35,WeatherDisplay:10.37,2013-06-12 08:10:00,
2013-06-12 04:15:00,59.9,57.3,29.77,WNW,289,1.0,4.0,91,0.02,RA,OVC,0.36,WeatherDisplay:10.37,2013-06-12 08:15:00,
2013-06-12 04:20:00,59.8,56.2,29.77,NW,311,0.0,5.0,88,0.02,RA,OVC,0.37,WeatherDisplay:10.37,2013-06-12 08:20:00,
2013-06-12 04:25:00,59.4,55.5,29.78,North,350,0.0,12.0,87,0.01,RA,OVC,0.37,WeatherDisplay:10.37,2013-06-12 08:25:00,
2013-06-12 04:30:00,58.6,54.7,29.76,North,354,0.0,0.0,87,0.01,RA,OVC,0.38,WeatherDisplay:10.37,2013-06-12 08:30:00,
2013-06-12 04:35:00,58.5,55.3,29.75,North,0,0.0,0.0,89,0.02,RA,OVC,0.39,WeatherDisplay:10.37,2013-06-12 08:35:00,
2013-06-12 04:40:00,58.4,56.4,29.76,North,0,0.0,0.0,93,0.02,RA,OVC,0.39,WeatherDisplay:10.37,2013-06-12 08:40:00,
2013-06-12 04:45:00,58.4,56.4,29.77,NNW,342,0.0,3.0,93,0.01,RA,OVC,0.39,WeatherDisplay:10.37,2013-06-12 08:45:00,
2013-06-12 04:50:00,58.3,56.3,29.77,NW,304,0.0,1.0,93,0.01,RA,OVC,0.40,WeatherDisplay:10.37,2013-06-12 08:50:00,
2013-06-12 04:55:00,58.6,56.6,29.77,WNW,292,0.0,2.0,93,0.02,RA,OVC,0.41,WeatherDisplay:10.37,2013-06-12 08:55:00,
2013-06-12 05:00:00,58.7,56.4,29.78,WNW,301,0.0,3.0,92,0.01,RA,OVC,0.41,WeatherDisplay:10.37,2013-06-12 09:00:00,
2013-06-12 05:05:00,58.9,56.9,29.79,NW,307,1.0,4.0,93,0.01,RA,OVC,0.42,WeatherDisplay:10.37,2013-06-12 09:05:00,
2013-06-12 05:10:00,59.0,56.7,29.78,WNW,302,2.0,4.0,92,0.02,RA,OVC,0.43,WeatherDisplay:10.37,2013-06-12 09:10:00,
2013-06-12 05:15:00,59.4,57.1,29.78,WNW,296,0.0,5.0,92,0.01,RA,OVC,0.43,WeatherDisplay:10.37,2013-06-12 09:15:00,
2013-06-12 05:20:00,59.5,57.2,29.78,WNW,288,0.0,3.0,92,0.01,RA,OVC,0.43,WeatherDisplay:10.37,2013-06-12 09:20:00,
2013-06-12 05:25:00,59.7,57.1,29.78,WNW,286,0.0,4.0,91,0.01,RA,OVC,0.43,WeatherDisplay:10.37,2013-06-12 09:25:00,
2013-06-12 05:30:00,59.4,57.1,29.79,West,280,1.0,2.0,92,0.01,RA,OVC,0.44,WeatherDisplay:10.37,2013-06-12 09:30:00,
2013-06-12 05:35:00,59.3,57.3,29.79,WNW,283,1.0,4.0,93,0.01,RA,OVC,0.44,WeatherDisplay:10.37,2013-06-12 09:35:00,
2013-06-12 05:40:00,59.4,57.4,29.79,WNW,284,1.0,4.0,93,0.01,RA,OVC,0.45,WeatherDisplay:10.37,2013-06-12 09:40:00,
2013-06-12 05:45:00,59.4,57.7,29.79,WSW,254,0.0,3.0,94,0.01,RA,OVC,0.45,WeatherDisplay:10.37,2013-06-12 09:45:00,
2013-06-12 05:50:00,59.4,57.7,29.79,SW,227,0.0,1.0,94,0.01,RA,OVC,0.46,WeatherDisplay:10.37,2013-06-12 09:50:00,
2013-06-12 05:55:00,59.3,57.6,29.79,West,263,2.0,5.0,94,0.01,RA,OVC,0.46,WeatherDisplay:10.37,2013-06-12 09:55:00,
2013-06-12 06:00:00,59.2,57.5,29.79,WNW,289,2.0,6.0,94,0.00,CLR,OVC,0.46,WeatherDisplay:10.37,2013-06-12 10:00:00,
2013-06-12 06:05:00,59.1,57.4,29.78,WNW,285,1.0,3.0,94,0.01,RA,OVC,0.47,WeatherDisplay:10.37,2013-06-12 10:05:00,
2013-06-12 06:10:00,59.0,57.0,29.77,West,267,0.0,3.0,93,0.01,RA,OVC,0.47,WeatherDisplay:10.37,2013-06-12 10:10:00,
2013-06-12 06:15:00,59.5,58.1,29.77,West,266,0.0,0.0,95,0.01,RA,OVC,0.47,WeatherDisplay:10.37,2013-06-12 10:15:00,
2013-06-12 06:20:00,60.2,58.8,29.77,West,270,0.0,1.0,95,0.01,RA,OVC,0.47,WeatherDisplay:10.37,2013-06-12 10:20:00,
2013-06-12 06:25:00,60.7,59.0,29.77,West,270,0.0,1.0,94,0.01,RA,OVC,0.48,WeatherDisplay:10.37,2013-06-12 10:25:00,
2013-06-12 06:30:00,61.0,59.3,29.77,West,270,0.0,1.0,94,0.01,RA,OVC,0.48,WeatherDisplay:10.37,2013-06-12 10:30:00,
2013-06-12 06:35:00,61.2,59.5,29.77,West,270,0.0,1.0,94,0.00,CLR,OVC,0.48,WeatherDisplay:10.37,2013-06-12 10:35:00,
2013-06-12 06:40:00,61.2,59.5,29.77,West,270,0.0,2.0,94,0.01,RA,OVC,0.49,WeatherDisplay:10.37,2013-06-12 10:40:00,
2013-06-12 06:45:00,61.1,59.4,29.77,West,270,0.0,2.0,94,0.01,RA,OVC,0.49,WeatherDisplay:10.37,2013-06-12 10:45:00,
2013-06-12 06:50:00,60.9,59.2,29.77,West,270,0.0,1.0,94,0.00,CLR,OVC,0.49,WeatherDisplay:10.37,2013-06-12 10:50:00,
2013-06-12 06:55:00,60.7,59.0,29.77,West,270,0.0,0.0,94,0.00,CLR,OVC,0.49,WeatherDisplay:10.37,2013-06-12 10:55:00,
2013-06-12 07:00:00,60.7,59.0,29.76,West,270,0.0,0.0,94,0.01,RA,OVC,0.50,WeatherDisplay:10.37,2013-06-12 11:00:00,
2013-06-12 07:05:00,61.2,59.8,29.76,West,270,0.0,0.0,95,0.01,RA,OVC,0.50,WeatherDisplay:10.37,2013-06-12 11:05:00,
2013-06-12 07:10:00,61.2,59.5,29.77,West,270,0.0,1.0,94,0.00,CLR,OVC,0.50,WeatherDisplay:10.37,2013-06-12 11:10:00,
2013-06-12 07:15:00,61.4,59.7,29.78,West,270,0.0,1.0,94,0.01,RA,OVC,0.50,WeatherDisplay:10.37,2013-06-12 11:15:00,
2013-06-12 07:20:00,61.4,59.7,29.78,West,270,0.0,0.0,94,0.01,RA,OVC,0.50,WeatherDisplay:10.37,2013-06-12 11:20:00,
2013-06-12 07:25:00,61.3,59.9,29.77,West,270,0.0,0.0,95,0.00,CLR,OVC,0.50,WeatherDisplay:10.37,2013-06-12 11:25:00,
2013-06-12 07:30:00,61.3,59.9,29.77,West,270,0.0,0.0,95,0.00,CLR,OVC,0.50,WeatherDisplay:10.37,2013-06-12 11:30:00,
2013-06-12 07:35:00,61.3,59.9,29.77,West,270,0.0,0.0,95,0.01,RA,OVC,0.51,WeatherDisplay:10.37,2013-06-12 11:35:00,
2013-06-12 07:40:00,61.3,59.9,29.76,West,270,0.0,0.0,95,0.01,RA,OVC,0.51,WeatherDisplay:10.37,2013-06-12 11:40:00,
2013-06-12 07:45:00,61.2,59.8,29.77,West,270,0.0,0.0,95,0.00,CLR,OVC,0.51,WeatherDisplay:10.37,2013-06-12 11:45:00,
2013-06-12 07:50:00,61.2,60.1,29.77,West,270,0.0,0.0,96,0.00,CLR,OVC,0.51,WeatherDisplay:10.37,2013-06-12 11:50:00,
2013-06-12 07:55:00,61.3,60.2,29.77,West,270,0.0,0.0,96,0.01,RA,OVC,0.52,WeatherDisplay:10.37,2013-06-12 11:55:00,
2013-06-12 08:00:00,61.0,59.6,29.77,West,270,0.0,0.0,95,0.01,RA,OVC,0.52,WeatherDisplay:10.37,2013-06-12 12:00:00,
2013-06-12 08:05:00,60.9,59.5,29.77,West,270,0.0,0.0,95,0.00,CLR,OVC,0.52,WeatherDisplay:10.37,2013-06-12 12:05:00,
2013-06-12 08:10:00,60.7,59.3,29.77,West,270,0.0,0.0,95,0.00,CLR,OVC,0.52,WeatherDisplay:10.37,2013-06-12 12:10:00,
2013-06-12 08:15:00,60.9,59.8,29.77,West,270,0.0,0.0,96,0.01,RA,OVC,0.53,WeatherDisplay:10.37,2013-06-12 12:15:00,
2013-06-12 08:20:00,60.5,59.1,29.77,West,270,0.0,3.0,95,0.01,RA,OVC,0.53,WeatherDisplay:10.37,2013-06-12 12:20:00,
2013-06-12 08:25:00,60.2,58.8,29.78,West,272,1.0,3.0,95,0.00,CLR,OVC,0.53,WeatherDisplay:10.37,2013-06-12 12:25:00,
2013-06-12 08:30:00,59.8,58.1,29.79,West,276,0.0,3.0,94,0.00,CLR,OVC,0.53,WeatherDisplay:10.37,2013-06-12 12:30:00,
2013-06-12 08:35:00,59.6,57.9,29.80,West,274,0.0,0.0,94,0.00,CLR,OVC,0.53,WeatherDisplay:10.37,2013-06-12 12:35:00,
2013-06-12 08:40:00,59.4,58.0,29.80,West,270,0.0,0.0,95,0.01,RA,OVC,0.54,WeatherDisplay:10.37,2013-06-12 12:40:00,
2013-06-12 16:25:00,49.2,49.2,29.76,WNW,294,0.0,0.0,100,0.01,RA,OVC,0.05,WeatherDisplay:10.37,2013-06-12 20:25:00,
2013-06-12 16:30:00,49.1,49.1,29.76,WNW,292,0.0,0.0,100,0.01,RA,OVC,0.05,WeatherDisplay:10.37,2013-06-12 20:30:00,
2013-06-12 16:35:00,49.1,49.1,29.75,WNW,292,0.0,0.0,100,0.00,CLR,OVC,0.05,WeatherDisplay:10.37,2013-06-12 20:35:00,
2013-06-12 16:40:00,48.9,48.9,29.75,WNW,292,0.0,0.0,100,0.00,CLR,OVC,0.05,WeatherDisplay:10.37,2013-06-12 20:40:00,
2013-06-12 16:45:00,48.8,48.8,29.75,WNW,292,0.0,0.0,100,0.00,CLR,OVC,0.05,WeatherDisplay:10.37,2013-06-12 20:45:00,
2013-06-12 16:50:00,48.7,48.7,29.75,WNW,292,0.0,0.0,100,0.00,CLR,OVC,0.05,WeatherDisplay:10.37,2013-06-12 20:50:00,
2013-06-12 16:55:00,48.9,48.9,29.75,WNW,292,0.0,0.0,100,0.00,CLR,OVC,0.05,WeatherDisplay:10.37,2013-06-12 20:55:00,
2013-06-12 17:00:00,49.0,49.0,29.75,WNW,292,0.0,0.0,100,0.00,CLR,OVC,0.05,WeatherDisplay:10.37,2013-06-12 21:00:00,
2013-06-12 17:05:00,49.3,49.3,29.75,WNW,292,0.0,0.0,100,0.00,CLR,OVC,0.05,WeatherDisplay:10.37,2013-06-12 21:05:00,
2013-06-12 17:10:00,49.4,49.4,29.76,WNW,292,0.0,0.0,100,0.00,CLR,OVC,0.05,WeatherDisplay:10.37,2013-06-12 21:10:00,
2013-06-12 17:15:00,49.5,49.5,29.76,WNW,292,0.0,0.0,100,0.00,CLR,OVC,0.05,WeatherDisplay:10.37,2013-06-12 21:15:00,
2013-06-12 17:20:00,49.7,49.7,29.76,WNW,292,0.0,0.0,100,0.00,CLR,OVC,0.05,WeatherDisplay:10.37,2013-06-12 21:20:00,
2013-06-12 17:25:00,49.9,49.9,29.76,WNW,292,0.0,1.0,100,0.00,CLR,OVC,0.05,WeatherDisplay:10.37,2013-06-12 21:25:00,
2013-06-12 17:30:00,49.9,49.9,29.76,WNW,292,0.0,0.0,100,0.00,CLR,OVC,0.05,WeatherDisplay:10.37,2013-06-12 21:30:00,
2013-06-12 17:35:00,49.9,49.9,29.76,WNW,292,0.0,0.0,100,0.00,CLR,OVC,0.05,WeatherDisplay:10.37,2013-06-12 21:35:00,
2013-06-12 17:40:00,49.5,49.5,29.76,WNW,292,0.0,0.0,100,0.00,CLR,OVC,0.05,WeatherDisplay:10.37,2013-06-12 21:40:00,
2013-06-12 17:45:00,49.1,49.1,29.76,WNW,292,0.0,0.0,100,0.00,CLR,OVC,0.05,WeatherDisplay:10.37,2013-06-12 21:45:00,
2013-06-12 17:50:00,48.9,48.9,29.76,WNW,292,0.0,0.0,100,0.00,CLR,OVC,0.05,WeatherDisplay:10.37,2013-06-12 21:50:00,
2013-06-12 17:55:00,48.7,48.7,29.76,WNW,292,0.0,0.0,100,0.00,CLR,OVC,0.05,WeatherDisplay:10.37,2013-06-12 21:55:00,
2013-06-12 18:00:00,48.6,48.6,29.76,WNW,292,0.0,0.0,100,0.00,CLR,OVC,0.05,WeatherDisplay:10.37,2013-06-12 22:00:00,
2013-06-12 18:05:00,48.7,48.7,29.76,WNW,292,0.0,0.0,100,0.00,CLR,OVC,0.05,WeatherDisplay:10.37,2013-06-12 22:05:00,
2013-06-12 18:10:00,48.6,48.6,29.76,WNW,292,0.0,0.0,100,0.00,CLR,OVC,0.05,WeatherDisplay:10.37,2013-06-12 22:10:00,
2013-06-12 18:15:00,48.6,48.6,29.75,WNW,292,0.0,0.0,100,0.00,CLR,OVC,0.05,WeatherDisplay:10.37,2013-06-12 22:15:00,
2013-06-12 18:20:00,48.5,48.5,29.76,WNW,292,0.0,0.0,100,0.00,CLR,OVC,0.05,WeatherDisplay:10.37,2013-06-12 22:20:00,
2013-06-12 18:25:00,48.3,48.3,29.76,WNW,292,0.0,0.0,100,0.00,CLR,OVC,0.05,WeatherDisplay:10.37,2013-06-12 22:25:00,
2013-06-12 18:30:00,48.4,48.4,29.76,WNW,292,0.0,0.0,100,0.01,RA,OVC,0.06,WeatherDisplay:10.37,2013-06-12 22:30:00,
2013-06-12 18:35:00,48.3,48.3,29.75,WNW,292,0.0,0.0,100,0.01,RA,OVC,0.06,WeatherDisplay:10.37,2013-06-12 22:35:00,
2013-06-12 18:40:00,48.5,48.5,29.76,WNW,292,0.0,1.0,100,0.00,CLR,OVC,0.06,WeatherDisplay:10.37,2013-06-12 22:40:00,
2013-06-12 18:45:00,48.5,48.5,29.75,WNW,292,0.0,0.0,100,0.00,CLR,OVC,0.06,WeatherDisplay:10.37,2013-06-12 22:45:00,
2013-06-12 18:50:00,48.6,48.6,29.75,WNW,292,0.0,0.0,100,0.00,CLR,OVC,0.06,WeatherDisplay:10.37,2013-06-12 22:50:00,
2013-06-12 18:55:00,48.7,48.7,29.76,WNW,292,0.0,0.0,100,0.00,CLR,OVC,0.06,WeatherDisplay:10.37,2013-06-12 22:55:00,
2013-06-12 19:00:00,48.8,48.8,29.75,WNW,292,0.0,0.0,100,0.00,CLR,OVC,0.06,WeatherDisplay:10.37,2013-06-12 23:00:00,
2013-06-12 19:05:00,48.9,48.9,29.75,WNW,292,0.0,0.0,100,0.00,CLR,OVC,0.06,WeatherDisplay:10.37,2013-06-12 23:05:00,
2013-06-12 19:10:00,49.0,49.0,29.75,WNW,292,0.0,0.0,100,0.00,CLR,OVC,0.06,WeatherDisplay:10.37,2013-06-12 23:10:00,
2013-06-12 19:15:00,49.3,49.3,29.75,WNW,292,0.0,0.0,100,0.00,CLR,OVC,0.06,WeatherDisplay:10.37,2013-06-12 23:15:00,
2013-06-12 19:20:00,49.7,49.7,29.76,WNW,292,0.0,0.0,100,0.00,CLR,OVC,0.06,WeatherDisplay:10.37,2013-06-12 23:20:00,
2013-06-12 19:25:00,50.0,50.0,29.75,WNW,292,0.0,0.0,100,0.00,CLR,OVC,0.06,WeatherDisplay:10.37,2013-06-12 23:25:00,
2013-06-12 19:30:00,50.0,50.0,29.75,WNW,292,0.0,0.0,100,0.00,CLR,OVC,0.06,WeatherDisplay:10.37,2013-06-12 23:30:00,
2013-06-12 19:35:00,50.2,50.2,29.75,WNW,292,0.0,0.0,100,0.00,CLR,OVC,0.06,WeatherDisplay:10.37,2013-06-12 23:35:00,
2013-06-12 19:40:00,50.6,50.6,29.75,WNW,292,0.0,0.0,100,0.00,CLR,OVC,0.06,WeatherDisplay:10.37,2013-06-12 23:40:00,
2013-06-12 19:45:00,51.4,51.4,29.75,WNW,292,0.0,0.0,100,0.00,CLR,OVC,0.06,WeatherDisplay:10.37,2013-06-12 23:45:00,
2013-06-12 19:50:00,51.9,51.9,29.75,WNW,292,0.0,0.0,100,0.00,CLR,OVC,0.06,WeatherDisplay:10.37,2013-06-12 23:50:00,
2013-06-12 19:55:00,52.3,52.3,29.75,WNW,292,0.0,0.0,100,0.00,CLR,OVC,0.06,WeatherDisplay:10.37,2013-06-12 23:55:00,
2013-06-12 20:00:00,58.8,57.4,29.81,NNW,334,0.0,0.0,95,0.00,-RA,OVC,0.54,WeatherDisplay:10.37,2013-06-13 00:00:00,
2013-06-12 20:05:00,52.7,52.7,29.75,WNW,292,0.0,0.0,100,0.00,CLR,OVC,0.06,WeatherDisplay:10.37,2013-06-13 00:05:00,
2013-06-12 20:10:00,58.7,57.6,29.81,NNW,334,0.0,0.0,96,0.01,RA,OVC,0.54,WeatherDisplay:10.37,2013-06-13 00:10:00,
2013-06-12 20:15:00,58.6,57.5,29.82,NNW,334,0.0,0.0,96,0.00,RA,OVC,0.54,WeatherDisplay:10.37,2013-06-13 00:15:00,
2013-06-12 20:20:00,58.6,57.5,29.82,NNW,334,0.0,0.0,96,0.00,OVC,OVC,0.54,WeatherDisplay:10.37,2013-06-13 00:20:00,
2013-06-12 20:25:00,58.6,57.5,29.82,NNW,334,0.0,0.0,96,0.00,OVC,OVC,0.54,WeatherDisplay:10.37,2013-06-13 00:25:00,
2013-06-12 20:30:00,54.9,54.9,29.76,WNW,292,0.0,0.0,100,0.00,CLR,OVC,0.06,WeatherDisplay:10.37,2013-06-13 00:30:00,
2013-06-12 20:35:00,58.5,57.4,29.83,NNW,334,0.0,0.0,96,0.00,OVC,OVC,0.54,WeatherDisplay:10.37,2013-06-13 00:35:00,
2013-06-12 20:40:00,58.5,57.3,29.83,NNW,334,0.0,0.0,96,0.01,RA,OVC,0.55,WeatherDisplay:10.37,2013-06-13 00:40:00,
2013-06-12 20:45:00,58.6,58.6,29.83,NNW,334,0.0,0.0,100,0.00,RA,OVC,0.55,WeatherDisplay:10.37,2013-06-13 00:45:00,
2013-06-12 20:50:00,58.6,58.6,29.84,NNW,334,0.0,0.0,100,0.00,OVC,OVC,0.55,WeatherDisplay:10.37,2013-06-13 00:50:00,
2013-06-12 20:55:00,58.6,58.6,29.84,NNW,334,0.0,0.0,100,0.00,OVC,OVC,0.55,WeatherDisplay:10.37,2013-06-13 00:55:00,
2013-06-12 21:00:00,58.6,58.6,29.84,NNW,334,0.0,0.0,100,0.00,OVC,OVC,0.55,WeatherDisplay:10.37,2013-06-13 01:00:00,
2013-06-12 21:05:00,58.5,58.5,29.83,NNW,334,0.0,0.0,100,0.00,OVC,OVC,0.55,WeatherDisplay:10.37,2013-06-13 01:05:00,
2013-06-12 21:10:00,58.4,57.5,29.84,NNW,334,0.0,0.0,97,0.00,OVC,OVC,0.55,WeatherDisplay:10.37,2013-06-13 01:10:00,
2013-06-12 21:15:00,58.0,56.9,29.83,NNW,334,0.0,0.0,96,0.01,RA,OVC,0.56,WeatherDisplay:10.37,2013-06-13 01:15:00,
2013-06-12 21:20:00,57.6,56.5,29.83,NNW,334,0.0,0.0,96,0.00,RA,OVC,0.56,WeatherDisplay:10.37,2013-06-13 01:20:00,
2013-06-12 21:25:00,57.2,56.1,29.83,NE,34,0.0,0.0,96,0.00,OVC,OVC,0.56,WeatherDisplay:10.37,2013-06-13 01:25:00,
2013-06-12 21:30:00,57.0,55.9,29.83,East,94,0.0,0.0,96,0.00,OVC,OVC,0.56,WeatherDisplay:10.37,2013-06-13 01:30:00,
2013-06-12 21:35:00,56.9,55.8,29.83,East,94,0.0,0.0,96,0.00,OVC,OVC,0.56,WeatherDisplay:10.37,2013-06-13 01:35:00,
2013-06-12 21:40:00,56.7,55.6,29.83,East,94,0.0,0.0,96,0.00,OVC,OVC,0.56,WeatherDisplay:10.37,2013-06-13 01:40:00,
2013-06-12 21:45:00,56.6,55.5,29.83,East,94,0.0,0.0,96,0.00,OVC,OVC,0.56,WeatherDisplay:10.37,2013-06-13 01:45:00,
2013-06-12 21:50:00,56.5,55.4,29.83,East,94,0.0,0.0,96,0.00,OVC,OVC,0.56,WeatherDisplay:10.37,2013-06-13 01:50:00,
2013-06-12 21:55:00,56.5,55.4,29.83,East,94,0.0,0.0,96,0.01,RA,OVC,0.57,WeatherDisplay:10.37,2013-06-13 01:55:00,
2013-06-12 22:00:00,56.5,56.5,29.83,East,94,0.0,0.0,100,0.00,RA,OVC,0.57,WeatherDisplay:10.37,2013-06-13 02:00:00,
2013-06-12 22:05:00,56.6,56.6,29.83,East,94,0.0,0.0,100,0.00,OVC,OVC,0.57,WeatherDisplay:10.37,2013-06-13 02:05:00,
2013-06-12 22:10:00,56.7,56.7,29.83,East,94,0.0,0.0,100,0.00,OVC,OVC,0.57,WeatherDisplay:10.37,2013-06-13 02:10:00,
2013-06-12 22:15:00,56.6,56.6,29.83,East,94,0.0,0.0,100,0.00,OVC,OVC,0.57,WeatherDisplay:10.37,2013-06-13 02:15:00,
2013-06-12 22:20:00,56.5,56.5,29.83,East,94,0.0,0.0,100,0.00,OVC,OVC,0.57,WeatherDisplay:10.37,2013-06-13 02:20:00,
2013-06-12 22:25:00,56.5,56.5,29.82,East,94,0.0,0.0,100,0.00,OVC,OVC,0.57,WeatherDisplay:10.37,2013-06-13 02:25:00,
2013-06-12 22:30:00,56.5,56.5,29.82,NNE,20,0.0,0.0,100,0.00,OVC,OVC,0.57,WeatherDisplay:10.37,2013-06-13 02:30:00,
2013-06-12 22:35:00,56.5,56.5,29.82,NNW,340,0.0,0.0,100,0.00,OVC,OVC,0.57,WeatherDisplay:10.37,2013-06-13 02:35:00,
2013-06-12 22:40:00,56.4,56.4,29.82,NNW,340,0.0,0.0,100,0.00,OVC,OVC,0.57,WeatherDisplay:10.37,2013-06-13 02:40:00,
2013-06-12 22:45:00,56.4,56.4,29.81,NNW,340,0.0,0.0,100,0.00,OVC,OVC,0.57,WeatherDisplay:10.37,2013-06-13 02:45:00,
2013-06-12 22:50:00,56.3,56.3,29.81,NNW,340,0.0,0.0,100,0.00,OVC,OVC,0.57,WeatherDisplay:10.37,2013-06-13 02:50:00,
2013-06-12 22:55:00,56.2,56.2,29.80,NNW,340,0.0,0.0,100,0.00,OVC,OVC,0.57,WeatherDisplay:10.37,2013-06-13 02:55:00,
2013-06-12 23:00:00,56.0,56.0,29.80,NNW,340,0.0,0.0,100,0.00,OVC,OVC,0.57,WeatherDisplay:10.37,2013-06-13 03:00:00,
2013-06-12 23:05:00,55.8,55.8,29.80,NNW,340,0.0,0.0,100,0.00,OVC,OVC,0.57,WeatherDisplay:10.37,2013-06-13 03:05:00,
2013-06-12 23:10:00,55.7,55.7,29.80,NNW,340,0.0,0.0,100,0.01,RA,OVC,0.57,WeatherDisplay:10.37,2013-06-13 03:10:00,
2013-06-12 23:15:00,55.6,55.6,29.80,NNW,340,0.0,0.0,100,0.00,RA,OVC,0.57,WeatherDisplay:10.37,2013-06-13 03:15:00,
2013-06-12 23:20:00,55.5,55.5,29.80,NNW,340,0.0,0.0,100,0.00,BKN,OVC,0.57,WeatherDisplay:10.37,2013-06-13 03:20:00,
2013-06-12 23:25:00,55.4,55.4,29.80,NNW,340,0.0,0.0,100,0.00,BKN,OVC,0.57,WeatherDisplay:10.37,2013-06-13 03:25:00,
2013-06-12 23:30:00,55.4,55.4,29.79,NNW,340,0.0,0.0,100,0.00,BKN,OVC,0.57,WeatherDisplay:10.37,2013-06-13 03:30:00,
2013-06-12 23:35:00,55.2,55.2,29.79,NNW,340,0.0,0.0,100,0.00,BKN,OVC,0.57,WeatherDisplay:10.37,2013-06-13 03:35:00,
2013-06-12 23:40:00,55.0,55.0,29.79,NNW,340,0.0,0.0,100,0.00,BKN,OVC,0.57,WeatherDisplay:10.37,2013-06-13 03:40:00,
2013-06-12 23:45:00,54.8,54.8,29.79,NNW,340,0.0,0.0,100,0.00,BKN,OVC,0.57,WeatherDisplay:10.37,2013-06-13 03:45:00,
2013-06-12 23:50:00,54.7,54.7,29.78,NNW,340,0.0,0.0,100,0.00,BKN,OVC,0.57,WeatherDisplay:10.37,2013-06-13 03:50:00,
2013-06-12 23:55:00,54.5,54.5,29.78,NNW,340,0.0,1.0,100,0.00,BKN,OVC,0.57,WeatherDisplay:10.37,2013-06-13 03:55:00,